When you browse on this site, cookies collect data to enhance your experience and personalize the content and advertising you see.
Visit our Privacy Policy to learn more. By continuing to use the site, you agree to this use of cookies and data.
  • In United Kingdom
  • List of Countries
  • For 7 days
  • Water Temperature
  • Satellite Maps
  • Weather Map
  • Weather Widgets
  • user-avatar
    Login

    Hourly Weather Ahtopol

    Today, 21 July, Sunday

    Time Temperature Precipitation Wind Pressure Humidity
    00:00 +21°C° 0 mm 1 mps 762 mmHg 83%
    01:00 +20°C° 0 mm 1 mps 762 mmHg 82%
    02:00 +20°C° 0 mm 1 mps 762 mmHg 81%
    03:00 +20°C° 0 mm 1 mps 762 mmHg 80%
    04:00 +20°C° 0 mm 1 mps 762 mmHg 79%
    05:00 +20°C° 0 mm 1 mps 762 mmHg 78%
    06:00 +22°C° 0 mm 1 mps 762 mmHg 69%
    07:00 +25°C° 0 mm 1 mps 762 mmHg 60%
    08:00 +25°C° 0 mm 0 mps 762 mmHg 51%
    09:00 +28°C° 0 mm 1 mps 762 mmHg 46%
    10:00 +30°C° 0 mm 2 mps 762 mmHg 41%
    11:00 +32°C° 0 mm 2 mps 762 mmHg 35%
    12:00 +33°C° 0 mm 3 mps 762 mmHg 35%
    13:00 +33°C° 0 mm 4 mps 762 mmHg 35%
    14:00 +33°C° 0 mm 4 mps 761 mmHg 35%
    15:00 +33°C° 0 mm 4 mps 761 mmHg 36%
    16:00 +32°C° 0 mm 4 mps 761 mmHg 37%
    17:00 +30°C° 0 mm 4 mps 761 mmHg 38%
    18:00 +28°C° 0 mm 3 mps 761 mmHg 47%
    19:00 +26°C° 0 mm 2 mps 761 mmHg 56%
    20:00 +23°C° 0 mm 2 mps 761 mmHg 65%
    21:00 +23°C° 0 mm 1 mps 762 mmHg 66%
    22:00 +22°C° 0 mm 1 mps 762 mmHg 67%
    23:00 +20°C° 0 mm 0 mps 762 mmHg 67%

    Tomorrow, 22 July, Monday

    Time Temperature Precipitation Wind Pressure Humidity
    00:00 +21°C° 0 mm 1 mps 762 mmHg 65%
    01:00 +21°C° 0 mm 1 mps 762 mmHg 62%
    02:00 +21°C° 0 mm 1 mps 762 mmHg 59%
    03:00 +21°C° 0 mm 1 mps 761 mmHg 57%
    04:00 +21°C° 0 mm 1 mps 761 mmHg 55%
    05:00 +21°C° 0 mm 1 mps 761 mmHg 53%
    06:00 +23°C° 0 mm 1 mps 761 mmHg 48%
    07:00 +26°C° 0 mm 1 mps 761 mmHg 42%
    08:00 +28°C° 0 mm 1 mps 762 mmHg 37%
    09:00 +30°C° 0 mm 1 mps 761 mmHg 33%
    10:00 +32°C° 0 mm 2 mps 761 mmHg 30%
    11:00 +34°C° 0 mm 2 mps 761 mmHg 27%
    12:00 +35°C° 0 mm 3 mps 761 mmHg 26%
    13:00 +35°C° 0 mm 3 mps 761 mmHg 26%
    14:00 +36°C° 0 mm 4 mps 760 mmHg 25%
    15:00 +35°C° 0 mm 4 mps 760 mmHg 27%
    16:00 +34°C° 0 mm 4 mps 760 mmHg 29%
    17:00 +33°C° 0 mm 4 mps 760 mmHg 31%
    18:00 +30°C° 0 mm 3 mps 760 mmHg 39%
    19:00 +27°C° 0 mm 3 mps 760 mmHg 47%
    20:00 +25°C° 0 mm 2 mps 759 mmHg 55%
    21:00 +24°C° 0 mm 1 mps 760 mmHg 55%
    22:00 +24°C° 0 mm 1 mps 760 mmHg 54%
    23:00 +21°C° 0 mm 0 mps 760 mmHg 54%

    Day after tomorrow, 23 July, Tuesday

    Time Temperature Precipitation Wind Pressure Humidity
    00:00 +23°C° 0 mm 1 mps 760 mmHg 52%
    01:00 +24°C° 0 mm 1 mps 759 mmHg 49%
    02:00 +24°C° 0 mm 1 mps 759 mmHg 46%
    03:00 +23°C° 0 mm 1 mps 759 mmHg 49%
    04:00 +23°C° 0 mm 1 mps 759 mmHg 51%
    05:00 +23°C° 0 mm 1 mps 759 mmHg 53%
    06:00 +24°C° 0 mm 2 mps 759 mmHg 56%
    07:00 +25°C° 0 mm 3 mps 759 mmHg 59%
    08:00 +26°C° 0 mm 3 mps 759 mmHg 62%
    09:00 +27°C° 0 mm 3 mps 759 mmHg 59%
    10:00 +28°C° 0 mm 3 mps 759 mmHg 56%
    11:00 +30°C° 0 mm 4 mps 759 mmHg 53%
    12:00 +29°C° 0.6 mm 4 mps 759 mmHg 56%
    13:00 +29°C° 0.6 mm 4 mps 758 mmHg 58%
    14:00 +29°C° 0.6 mm 4 mps 758 mmHg 60%
    15:00 +28°C° 1.7 mm 5 mps 758 mmHg 66%
    16:00 +27°C° 1.7 mm 6 mps 759 mmHg 71%
    17:00 +24°C° 1.7 mm 7 mps 759 mmHg 77%
    18:00 +23°C° 0.2 mm 6 mps 759 mmHg 79%
    19:00 +23°C° 0.2 mm 5 mps 759 mmHg 81%
    20:00 +22°C° 0.2 mm 4 mps 760 mmHg 83%
    21:00 +21°C° 0 mm 3 mps 760 mmHg 85%
    22:00 +20°C° 0 mm 3 mps 760 mmHg 87%
    23:00 +19°C° 0 mm 3 mps 760 mmHg 89%

    24 July, Wednesday

    Time Temperature Precipitation Wind Pressure Humidity
    00:00 +19°C° 0 mm 2 mps 760 mmHg 89%
    01:00 +18°C° 0 mm 2 mps 760 mmHg 89%
    02:00 +18°C° 0 mm 2 mps 759 mmHg 88%
    03:00 +18°C° 0 mm 2 mps 759 mmHg 87%
    04:00 +18°C° 0 mm 2 mps 759 mmHg 85%
    05:00 +17°C° 0 mm 2 mps 759 mmHg 84%
    06:00 +19°C° 0 mm 3 mps 760 mmHg 75%
    07:00 +21°C° 0 mm 4 mps 760 mmHg 67%
    08:00 +23°C° 0 mm 4 mps 760 mmHg 59%
    09:00 +26°C° 0 mm 4 mps 760 mmHg 53%
    10:00 +27°C° 0 mm 4 mps 760 mmHg 47%
    11:00 +29°C° 0 mm 4 mps 760 mmHg 41%
    12:00 +29°C° 0 mm 4 mps 760 mmHg 40%
    13:00 +30°C° 0 mm 4 mps 759 mmHg 40%
    14:00 +30°C° 0 mm 4 mps 759 mmHg 39%
    15:00 +30°C° 0 mm 3 mps 759 mmHg 40%
    16:00 +29°C° 0 mm 3 mps 759 mmHg 42%
    17:00 +29°C° 0 mm 2 mps 759 mmHg 43%
    18:00 +27°C° 0 mm 2 mps 759 mmHg 49%
    19:00 +26°C° 0 mm 1 mps 759 mmHg 55%
    20:00 +24°C° 0 mm 1 mps 759 mmHg 61%
    21:00 +24°C° 0 mm 1 mps 759 mmHg 62%
    22:00 +23°C° 0 mm 1 mps 759 mmHg 63%
    23:00 +23°C° 0 mm 1 mps 759 mmHg 65%

    25 July, Thursday

    Time Temperature Precipitation Wind Pressure Humidity
    00:00 +22°C° 0 mm 1 mps 759 mmHg 65%
    01:00 +21°C° 0 mm 2 mps 759 mmHg 66%
    02:00 +21°C° 0 mm 2 mps 759 mmHg 67%
    03:00 +20°C° 0 mm 2 mps 759 mmHg 70%
    04:00 +20°C° 0 mm 3 mps 759 mmHg 73%
    05:00 +19°C° 0 mm 3 mps 759 mmHg 76%
    06:00 +21°C° 0 mm 3 mps 759 mmHg 71%
    07:00 +23°C° 0 mm 4 mps 760 mmHg 65%
    08:00 +25°C° 0 mm 5 mps 760 mmHg 60%
    09:00 +27°C° 0 mm 5 mps 760 mmHg 53%
    10:00 +29°C° 0 mm 5 mps 760 mmHg 46%
    11:00 +32°C° 0 mm 5 mps 760 mmHg 39%
    12:00 +32°C° 0 mm 5 mps 760 mmHg 37%
    13:00 +33°C° 0 mm 5 mps 759 mmHg 35%
    14:00 +34°C° 0 mm 5 mps 759 mmHg 34%
    15:00 +33°C° 0 mm 4 mps 759 mmHg 36%
    16:00 +33°C° 0 mm 4 mps 759 mmHg 37%
    17:00 +32°C° 0 mm 4 mps 759 mmHg 39%
    18:00 +29°C° 0 mm 3 mps 759 mmHg 48%
    19:00 +26°C° 0 mm 2 mps 759 mmHg 56%
    20:00 +24°C° 0 mm 2 mps 759 mmHg 64%
    21:00 +24°C° 0 mm 1 mps 759 mmHg 64%
    22:00 +23°C° 0 mm 1 mps 759 mmHg 64%
    23:00 +23°C° 0 mm 1 mps 759 mmHg 64%

    26 July, Friday

    Time Temperature Precipitation Wind Pressure Humidity
    00:00 +22°C° 0 mm 1 mps 759 mmHg 64%
    01:00 +22°C° 0 mm 1 mps 759 mmHg 64%
    02:00 +21°C° 0 mm 2 mps 759 mmHg 64%
    03:00 +20°C° 0 mm 2 mps 759 mmHg 64%
    04:00 +20°C° 0 mm 2 mps 759 mmHg 64%
    05:00 +20°C° 0 mm 2 mps 759 mmHg 65%
    06:00 +23°C° 0 mm 2 mps 759 mmHg 59%
    07:00 +25°C° 0 mm 3 mps 759 mmHg 54%
    08:00 +27°C° 0 mm 3 mps 759 mmHg 48%
    09:00 +28°C° 0 mm 3 mps 759 mmHg 43%
    10:00 +30°C° 0 mm 4 mps 759 mmHg 38%
    11:00 +32°C° 0 mm 4 mps 759 mmHg 34%
    12:00 +33°C° 0 mm 4 mps 759 mmHg 32%
    13:00 +34°C° 0 mm 4 mps 758 mmHg 31%
    14:00 +34°C° 0 mm 4 mps 758 mmHg 29%
    15:00 +34°C° 0 mm 4 mps 758 mmHg 30%
    16:00 +33°C° 0 mm 4 mps 757 mmHg 30%
    17:00 +33°C° 0 mm 4 mps 757 mmHg 31%
    18:00 +29°C° 0 mm 3 mps 757 mmHg 42%
    19:00 +26°C° 0 mm 3 mps 758 mmHg 53%
    20:00 +23°C° 0 mm 2 mps 758 mmHg 64%
    21:00 +23°C° 0 mm 1 mps 758 mmHg 67%
    22:00 +22°C° 0 mm 1 mps 758 mmHg 69%
    23:00 +20°C° 0 mm 0 mps 758 mmHg 72%
    Show more